COSMOS 2251 DEB

Satellite information

Favourite Embed

Satellite Type and Status

DEBRISIN ORBIT

Key statistics

Satellite COSMOS 2251 DEB at a glance.

Uptime

11819

Days in orbit

Revolutions

≈ 13.7

Per day

Orbit

LEO

Low Earth Orbit

Inclination

74.1

Latest

Satellite identification and parameters

Extended collection of information and parameters for COSMOS 2251 DEB.

Object identification

Identified? True

Debris? True

Object name: COSMOS 2251 DEB

International designator: 1993-036DT

Object number (NORAD): 33914

Object ID (CCSDS): 33914

Country: COMMONWEALTH OF INDEPENDENT STATES (CIS)

Current information (Y/N): Y

RCS size: MEDIUM

Orbital parameters

Period: 104.967 minutes

Inclination: 74.0883 deg

SMA: 7371.054 km

Apoapsis: 1217.041 km

Periapsis: 768.797 km

RAAN: 95.6027 deg

Eccentricy: 0.03040573

Argument of periapsis: 209.8768 deg

Mean anomaly: 273.1921 deg

Mean motion: 13.71855552 rev/day

Mean motion (dot): 0.00000757 rev/day2

B* drag term: 0.00061887781 1/REarth

Two-line elements (TLE)

Creation date: Oct. 25, 2025, 3:11 a.m.

Reference frame: TEME

Reference center: EARTH

Epoch: Oct. 24, 2025, 9:12 p.m. UTC

TLE line 0: 0 COSMOS 2251 DEB

TLE line 1: 1 33914U 93036DT 25297.88398286 .00000757 00000-0 61888-3 0 9991

TLE line 2: 2 33914 74.0883 95.6027 0304057 209.8768 273.1921 13.71855552834114

Live tracking on map

Real-time ground track for satellite COSMOS 2251 DEB.

In-orbit conjunctions

A list of the most updated potential collisions computed for object COSMOS 2251 DEB.

Target Orbit TCA Probability of collision Miss distance Type
COSMOS 1275 DEB LEO 2024-11-09 21:23:41 0.002123764 385.0 (m) DEBRIS
CZ-6A DEB LEO 2024-10-14 20:36:23 0.004460285 116.0 (m) DEBRIS
SL-8 R/B LEO 2024-07-15 15:16:58 0.0001841806 471.0 (m) ROCKET BODY

Associated space launch

Military communications satellite. Destroyed in a collision with Iridium 33.

COSMOS 2251 DEB was lifted into orbit during the mission ‘Kosmos-3M | Strela-2M 51’, on board a Kosmos-3M space rocket.

The launch took place on June 16, 1993, 4:17 a.m. from 132/1 (132L).

For more information about the launch, click the button.

Launch to space Kosmos-3M | Strela-2M 51
Kosmos-3M | Strela-2M 51

Agency: N/A

Status: Launch Successful

Launch date: June 16, 1993, 4:17 a.m. UTC

Rocket: Kosmos-3M

Launch pad: 132/1 (132L)

Location: Plesetsk Cosmodrome, Russian Federation

...

Latest news about this satellite

There are no fresh news available about this satellite. Check back as we update our databases every day.


Newsletter sign-up

Weekly statistics, charts and insights to help you stay on top of the space industry.